Location: Haram ta Haram Freeway
(35.0583°N, 51.4202°E)
Time: 14:32:01
(UTC+04:30)

CAS-4A - Pass Details

Date: 12 July 2020
Orbit: 528 x 545 km, 43.0° (Epoch: 02 August)

Event Time Altitude Azimuth Distance (km) Brightness Sun altitude
Exits shadow 02:11:11 18° 55° (NE) 1,363 ? -31.2°
Drops below altitude 10° 02:12:19 10° 58° (ENE) 1,791 ? -31.1°
Sets 02:14:34 0° 61° (ENE) 2,681 ? -31.0°
